Location: Newark
(25.7507°S, 31.4676°E)
Time: 00:13:34
(UTC+00:00)

Hubble Space Telescope - Pass Details

Date: 22 January 2020
Orbit: 536 x 540 km, 28.5° (Epoch: 24 February)

Event Time Altitude Azimuth Distance (km) Brightness Sun altitude
Rises 17:17:25 0° 329° (NNW) 2,670 4.4 -6.6°
Reaches altitude 10° 17:20:27 10° 352° (N) 1,784 3.2 -7.2°
Maximum altitude 17:22:52 15° 28° (NNE) 1,487 2.5 -7.7°
Enters shadow 17:25:11 10° 63° (ENE) 1,764 2.7 -8.2°
